Weather History for Lakehurst NAS, NJ

Change the Weather History Date:

Sunday, February 3, 2013

  Actual Average Record
Temperature  
Mean Temperature 24 °F -  
Max Temperature 25 °F 41 °F 63 °F (2006)
Min Temperature 15 °F 28 °F 15 °F (2013)
Degree Days  
Heating Degree Days 42    
Moisture  
Dew Point 20 °F    
Average Humidity 84    
Maximum Humidity 100    
Minimum Humidity 64    
Precipitation  
Precipitation 0.00 in - - ()
Sea Level Pressure  
Sea Level Pressure 29.90 in    
Wind  
Wind Speed 2 mph (NW)    
Max Wind Speed 10 mph    
Max Gust Speed -    
Averages and records for this station are not official NWS values.
T = Trace of Precipitation, MM = Missing Value Source: NWS Daily Summary

Daily Weather History Graph

Daily Weather History Graph

Search for Another Location

Airport:

Trip Planner

Search our weather history database for the weather conditions in past years. The results will help you decide how hot, cold, wet, or windy it might be!

Date:

Astronomy

Feb. 03, 2013 Rise Set
Actual Time 7:03 AM EST 5:19 PM EST
Civil Twilight 6:35 AM EST 5:47 PM EST
Nautical Twilight 6:03 AM EST 6:20 PM EST
Astronomical Twilight 5:31 AM EST 6:51 PM EST
Moon 12:28 AM EST (2/3) 10:54 AM EST (2/3)
Length of Visible Light 11h 12m
Length of Day
10h 15m
Waning Gibbous, 49% of the Moon is Illuminated
Feb 3
Waning Gibbous
Feb 10
New
Feb 17
First Quarter
Feb 25
Full
Mar 4
Last Quarter

Hourly Weather History & Observations

Time (EST) Temp. Windchill Dew Point Humidity Pressure Visibility Wind Dir Wind Speed Gust Speed Precip Events Conditions
12:00 AM 24.1 °F - 21.9 °F 91% 30.05 in - Calm Calm - N/A Snow Light Snow
12:08 AM 24.8 °F - 21.2 °F 86% 30.05 in - Calm Calm - N/A Snow Light Snow
1:00 AM 24.1 °F - 21.9 °F 91% 30.02 in - Calm Calm - N/A Snow Light Snow
2:00 AM 24.1 °F 19.7 °F 21.9 °F 91% 29.99 in - ENE 3.5 mph - N/A Snow Light Snow
3:00 AM 24.1 °F - 21.9 °F 91% 29.97 in - Calm Calm - N/A Snow Light Snow
3:17 AM 23.0 °F - 21.2 °F 93% 29.96 in - Calm Calm - N/A Snow Light Snow
4:00 AM 21.9 °F - 21.0 °F 96% 29.94 in - Calm Calm - N/A   Mostly Cloudy
4:24 AM 19.4 °F - 19.4 °F 100% 29.93 in - Calm Calm - N/A   Partly Cloudy
5:00 AM 17.1 °F - 16.0 °F 96% 29.93 in - Calm Calm - N/A   Clear
6:00 AM 15.1 °F - 12.9 °F 91% 29.94 in - Calm Calm - N/A   Partly Cloudy
6:12 AM 21.2 °F 16.4 °F 17.6 °F 86% 29.94 in - North 3.5 mph - N/A   Mostly Cloudy
7:00 AM 21.9 °F - 19.9 °F 92% 29.95 in - Calm Calm - N/A   Overcast
7:07 AM 21.2 °F - 19.4 °F 93% 29.95 in - Calm Calm - N/A   Overcast
7:28 AM 21.2 °F - 19.4 °F 93% 29.94 in - Calm Calm - N/A   Overcast
8:00 AM 23.0 °F 18.4 °F 19.9 °F 88% 29.94 in - NW 3.5 mph - N/A   Unknown
8:21 AM 24.8 °F - 23.0 °F 93% 29.94 in - Calm Calm - N/A   Overcast
9:00 AM 26.1 °F 20.5 °F 21.9 °F 84% 29.94 in - North 4.6 mph - N/A   Overcast
10:00 AM 27.0 °F 20.5 °F 21.0 °F 78% 29.92 in - NW 5.8 mph - N/A   Overcast
10:19 AM 26.6 °F 22.6 °F 21.2 °F 80% 29.92 in - Variable 3.5 mph - N/A   Overcast
10:56 AM 28.4 °F 23.3 °F 21.2 °F 74% 29.90 in - Variable 4.6 mph - N/A   Mostly Cloudy
11:00 AM 28.9 °F 23.9 °F 21.9 °F 75% 29.90 in - North 4.6 mph - N/A   Mostly Cloudy
12:00 PM 28.9 °F - 23.0 °F 78% 29.86 in - Calm Calm - N/A   Overcast
1:00 PM 30.9 °F - 21.9 °F 69% 29.84 in - Calm Calm - N/A   Mostly Cloudy
1:08 PM - - - N/A% - - North - - N/A   Unknown
2:00 PM 30.9 °F 24.3 °F 21.9 °F 69% 29.81 in - WNW 6.9 mph - N/A   Overcast
2:40 PM 30.2 °F 23.4 °F 21.2 °F 69% 29.80 in - WNW 6.9 mph - N/A   Scattered Clouds
3:00 PM 30.9 °F 23.5 °F 21.9 °F 69% 29.80 in - WNW 8.1 mph - N/A   Partly Cloudy
3:29 PM 32.0 °F 24.2 °F 21.2 °F 64% 29.80 in - WNW 9.2 mph - N/A   Mostly Cloudy
3:41 PM 30.2 °F 21.3 °F 21.2 °F 69% 29.80 in - WNW 10.4 mph - N/A   Scattered Clouds
4:00 PM 30.0 °F 22.4 °F 21.0 °F 69% 29.81 in - WNW 8.1 mph - N/A   Scattered Clouds
7:00 PM 25.0 °F - 19.0 °F 78% 29.83 in - Calm Calm - N/A   Clear
8:00 PM 21.0 °F - 18.0 °F 88% 29.83 in - Calm Calm - N/A   Clear
9:00 PM 21.0 °F - 18.0 °F 88% 29.83 in - Calm Calm - N/A   Scattered Clouds
10:00 PM 21.0 °F - 17.1 °F 85% 29.83 in - Calm Calm - N/A   Overcast
11:00 PM 25.0 °F - 21.0 °F 85% 29.83 in - Calm Calm - 0.00 in Snow Light Snow
11:12 PM 24.8 °F - 21.2 °F 86% 29.83 in - Calm Calm - 0.00 in Snow Snow
11:42 PM 24.8 °F 19.1 °F 21.2 °F 86% 29.84 in - West 4.6 mph - 0.00 in Snow Snow